Location: Caser�o Las Casetas d�en Montaner
(41.3776°N, 1.9104°E)
Time: 02:53:12
(UTC+00:00)

Daily predictions for brighter satellites

Satellite Brightness Start Highest point End
(mag) Time Altitude Azimuth Time Altitude Azimuth Time Altitude Azimuth
Cosmos 2344 4.3 02:37:40 44° NE 02:37:40 44° NE 02:42:45 10° NE
ADEOS Rocket 4.5 02:56:08 10° ESE 03:00:45 29° ENE 03:05:29 10° N
USA 234 4.5 02:55:31 10° NE 02:59:22 32° NNE 02:59:22 32° NNE
Cosmos 1833 Rocket 3.3 03:33:50 52° SE 03:34:15 53° ESE 03:39:45 10° NNE
NOSS 3-2 (C) 4.0 03:43:21 44° N 03:43:21 44° N 03:48:14 10° NNE
CENTAUR R/B 2.9 03:50:12 48° NNW 03:50:12 48° NNW 03:56:10 10° NNE
Cosmos 1656 3.6 03:55:16 77° S 03:55:16 77° S 04:00:34 10° SSE
Cosmos 2082 Rocket 3.1 03:52:15 12° S 03:57:12 45° ESE 04:02:32 10° NE
Cosmos 1461 3.5 03:57:50 62° ESE 03:57:50 62° ESE 04:02:14 10° NE
USA 290 4.1 04:06:41 30° E 04:06:41 30° E 04:09:06 10° NE
ISS -1.6 04:09:06 23° NE 04:09:06 23° NE 04:10:36 10° NE
Cosmos 2251 Rocket 4.4 04:03:22 10° S 04:08:31 49° ESE 04:13:39 10° NNE
CZ-2C R/B 2.4 04:04:24 10° N 04:08:51 67° NNW 04:08:51 67° NNW
Lacrosse 4 Rocket 3.4 04:18:22 16° N 04:18:22 16° N 04:19:28 10° N
Cosmos 1697 Rocket 2.6 04:16:50 18° NNW 04:21:13 87° ENE 04:26:53 10° SSE
COSMOS 2406 3.3 04:21:37 49° WNW 04:21:54 49° WNW 04:27:25 10° NNE
Meteor 1-31 Rocket 4.0 04:20:08 10° NNE 04:23:55 43° E 04:27:39 10° S
Lacrosse 5 rocket 2.3 04:25:45 31° N 04:25:45 31° N 04:28:13 10° NNE
DELTA 2 R/B (1) 4.4 04:24:26 32° SW 04:24:44 32° SSW 04:29:40 10° SE
Meteor 2-5 Rocket 3.7 04:20:01 10° S 04:25:41 85° E 04:31:32 10° N
[s.n.46673] 4.5 04:29:45 26° NE 04:29:45 26° NE 04:31:09 10° NE
[s.n.46700] 4.5 04:29:51 26° NE 04:29:51 26° NE 04:31:14 10° NE
[s.n.46705] 4.5 04:29:56 26° NE 04:29:56 26° NE 04:31:21 10° NE
[s.n.46692] 4.5 04:30:02 26° NE 04:30:02 26° NE 04:31:27 10° NE
[s.n.46686] 4.5 04:30:07 26° NE 04:30:07 26° NE 04:31:32 10° NE
[s.n.46716] 4.5 04:30:12 26° NE 04:30:12 26° NE 04:31:37 10° NE
[s.n.46722] 4.5 04:30:17 26° NE 04:30:17 26° NE 04:31:42 10° NE
[s.n.46689] 4.5 04:30:23 26° NE 04:30:23 26° NE 04:31:48 10° NE
[s.n.46681] 4.5 04:30:28 26° NE 04:30:28 26° NE 04:31:53 10° NE
FENGYUN 3A 3.8 04:25:58 10° NNE 04:31:26 79° ESE 04:36:52 10° S
PAYLOAD A 4.5 04:31:05 10° N 04:35:48 38° WNW 04:35:51 38° WNW
SAR-Lupe-4 4.4 04:32:53 10° SSE 04:36:20 49° ENE 04:39:49 10° N
ATLAS 3B R/B 2.5 04:32:59 22° SW 04:37:24 74° NW 04:44:03 10° NNE
ERS-2 1.9 04:34:32 10° S 04:38:09 70° WSW 04:39:17 41° NNW
Cosmos 1726 Rocket 3.7 04:36:37 10° N 04:41:06 75° E 04:45:32 10° SSE
Cosmos 967 Rocket 4.4 04:37:13 11° NNW 04:43:16 87° WSW 04:49:32 10° SSE
ATLAS CENTAUR R/B 4.3 04:41:04 10° SSE 04:43:32 16° ESE 04:45:56 10° ENE
Meteor 2-13 Rocket 4.3 04:37:50 10° SSW 04:43:59 78° W 04:50:09 10° N
Cosmos 1980 Rocket 2.4 04:38:24 10° NNW 04:44:00 71° ENE 04:49:35 10° SSE
Abrixas rocket 2.8 04:43:59 37° N 04:44:12 38° NNE 04:46:53 10° E
Cosmos 1092 Rocket 3.9 04:38:48 10° S 04:44:57 87° W 04:51:14 10° N
Geosat 3.9 04:40:39 10° SSE 04:45:39 76° WSW 04:50:42 10° NNW
ADEOS Rocket 3.2 04:41:11 10° SSW 04:46:11 36° W 04:51:17 10° NNW
Cosmos 2228 2.9 04:41:52 10° NNW 04:46:13 70° W 04:50:34 10° S
Nadezhda 4 Rocket 4.1 04:43:23 10° SSW 04:49:16 49° WNW 04:55:13 10° N
ADEOS 3.5 04:47:17 10° N 04:52:28 65° WNW 04:57:36 10° SSW
Cosmos 44 Rocket 4.3 04:53:07 27° WSW 04:53:30 27° WSW 04:57:50 10° SSW
CZ-3 R/B 3.7 04:35:58 17° WSW 04:53:52 45° SSW 05:01:13 10° ESE
SAR-Lupe-1 4.1 04:50:37 10° SSE 04:54:11 80° ENE 04:57:46 10° N
Aureole 3 4.1 04:50:22 10° N 04:54:41 71° E 05:00:12 10° SSE
Cosmos 1606 Rocket 3.6 04:52:31 10° NNW 04:56:55 57° W 05:01:17 10° S
NOSS 8 (A) 4.2 04:54:32 17° SSW 04:57:03 86° SE 05:00:03 10° NE
Cosmos 1400 Rocket 2.6 04:53:36 10° N 04:57:33 87° W 05:01:26 10° S
CZ-4B R/B 3.8 04:53:57 10° N 04:58:07 71° WNW 05:02:03 10° SSW
Cosmos 2360 4.3 04:56:19 10° NNW 05:01:52 56° WSW 05:07:23 10° S
COSMO-SKYMED 1 2.7 05:00:05 10° SSE 05:04:25 78° ENE 05:08:46 10° N
CZ-4B R/B 2.0 05:03:57 10° SSW 05:07:10 36° W 05:10:16 11° NNW
Cosmos 1627 Rocket 4.5 05:03:13 10° SSW 05:09:35 71° W 05:15:58 10° N
Cosmos 1300 3.0 05:07:25 10° NNW 05:11:03 42° W 05:14:39 10° SSW
ARGOS Delta rocket 4.1 05:06:12 10° N 05:11:36 69° WNW 05:17:02 10° SSW
Cosmos 1689 Rocket 1.9 05:10:56 10° S 05:13:51 82° WSW 05:16:48 10° NNW
ALOS 2.7 05:09:45 10° N 05:14:05 39° WNW 05:18:23 10° SW
Cosmos 1626 3.4 05:14:34 20° WNW 05:14:34 20° WNW 05:17:07 10° NNW
Cosmos 2278 3.7 05:08:51 10° NNW 05:14:26 63° WSW 05:19:59 10° S
SL-14 R/B 4.2 05:11:03 10° SW 05:14:27 27° WNW 05:17:55 10° NNW
Cosmos 2322 Rocket 3.9 05:10:47 10° N 05:15:50 32° ENE 05:20:50 10° ESE
Meteor 2-10 Rocket 4.0 05:10:51 10° N 05:15:50 63° ENE 05:20:55 10° SSE
Cosmos 1833 Rocket 3.8 05:15:37 17° W 05:18:30 24° NW 05:23:03 10° N
Meteor 2-8 Rocket 4.4 05:15:30 10° N 05:21:42 83° W 05:27:51 10° S
Cosmos 1992 Rocket 4.4 05:16:56 10° NW 05:21:45 39° WSW 05:26:33 10° S
Cosmos 2084 3.8 05:18:53 10° WSW 05:23:02 46° NW 05:27:17 10° NNE
deb Chang Zheng 4 4.2 05:20:16 10° N 05:24:04 32° WNW 05:27:50 10° SW
BREEZE-M DEB (TANK) 3.4 05:25:58 13° WSW 05:26:40 14° SW 05:28:01 10° S
METEOR-M 4.5 05:22:07 10° N 05:27:06 42° WNW 05:32:05 10° SW
Okean 1-7 Rocket 3.8 05:24:41 10° SSW 05:29:06 50° W 05:33:30 10° N
H-2A R/B 3.7 05:24:58 10° NNE 05:29:12 48° E 05:33:15 10° S
Cosmos 1315 Rocket 3.2 05:25:15 10° N 05:29:22 72° E 05:33:29 10° SSE
SJ-12 4.2 05:25:56 10° N 05:29:53 46° WNW 05:33:47 10° SW
SL-27 R/B 3.9 05:26:48 10° S 05:30:13 43° ESE 05:33:41 10° NNE
Cosmos 2058 Rocket 3.3 05:27:05 10° NNW 05:31:25 49° W 05:35:43 10° SSW
Cosmos 1484 Rocket 4.1 05:30:31 10° NNW 05:33:16 19° WNW 05:35:59 10° WSW
ASTRO F (AKARI) 4.4 05:30:15 10° N 05:33:40 57° WNW 05:36:56 10° SSW
H-2A R/B 2.9 05:32:10 10° NNE 05:36:00 78° E 05:39:51 10° S
Meteor 1-24 Rocket 4.5 05:32:31 10° SW 05:37:28 31° WNW 05:42:37 10° N
Cosmos 1892 Rocket 4.4 05:34:03 10° SW 05:37:46 28° WNW 05:41:33 10° NNW
Cosmos 1553 Rocket 3.9 05:32:47 10° N 05:38:55 79° W 05:44:57 10° S
USA 290 4.2 05:39:32 11° W 05:40:43 13° WNW 05:42:16 10° NNW
Cosmos 2082 Rocket 3.1 05:36:44 10° WSW 05:41:27 27° NW 05:46:12 10° N
CENTAUR R/B 4.3 05:37:50 10° WNW 05:42:00 17° NNW 05:46:35 10° NNE
Meteor PRIRODA 4.0 05:39:01 10° N 05:42:28 40° WNW 05:45:54 10° SW
Cosmos 614 Rocket 4.2 05:38:11 10° SW 05:43:09 47° WNW 05:48:06 10° N
CREW DRAGON DEMO-1 DEB 3.8 05:40:58 10° NW 05:43:52 40° NNE 05:46:43 10° ESE
ISS -1.8 05:42:20 10° NW 05:44:39 17° NNW 05:46:57 10° NNE
Cosmos 2026 Rocket 4.5 05:40:30 10° SW 05:46:24 39° WNW 05:52:20 10° N
SJ-7 4.4 05:42:36 10° NNE 05:46:37 89° NW 05:50:36 10° SSW
CZ-4B DEB 4.4 05:45:54 10° NNE 05:51:26 82° ESE 05:56:53 10° SSW
SL-16 R/B 2.5 05:46:30 10° NNW 05:52:12 74° ENE 05:57:52 10° SSE
SKYMED 2 4.4 05:48:46 10° SSW 05:52:35 30° W 05:56:26 10° NW
Meteor 2-15 4.4 05:49:22 10° NNW 05:55:25 69° W 06:01:25 10° S
